Regional Weather Roundup
Issued by NWS

Home | Current Version | Previous Version | Graphics & Text | Print | Product List | Glossary On
Versions: 1 2 3 4 5 6 7 8 9 10 11 12 13 14 15 16 17 18 19 20 21 22 23 24 25 26 27 28 29 30 31 32 33 34 35 36 37 38 39 40 41 42 43 44 45 46 47 48 49 50
000
ASUS43 KTOP 200159
RWRKS

WEATHER ROUNDUP FOR KANSAS
NATIONAL WEATHER SERVICE GOODLAND KS
900 PM CDT TUE AUG 19 2014

NOTE:  "FAIR" INDICATES FEW OR NO CLOUDS BELOW 12,000 FEET WITH NO
SIGNIFICANT WEATHER AND/OR OBSTRUCTIONS TO VISIBILITY.

KSZ001>006-013>018-027>032-041>047-200300-
NORTHWEST KANSAS

CITY           SKY/WX    TMP DP  RH WIND       PRES   REMARKS
GOODLAND       MOCLDY    82  55  39 S9        29.82R
HAYS           CLEAR     84  63  48 S13       29.78R
HILL CITY      PTCLDY    86  60  41 S10       29.76R
RUSSELL        CLEAR     84  62  47 S10       29.76R
$$

KSZ061>065-074>080-084>089-200300-
SOUTHWEST KANSAS

CITY           SKY/WX    TMP DP  RH WIND       PRES   REMARKS
DODGE CITY     CLEAR     82  59  45 S10       29.81S
ELKHART          N/A     81  57  43 SE14        N/A
GARDEN CITY    CLEAR     80  58  46 S10       29.81R
GREAT BEND     CLEAR     82  63  51 S8        29.79R
LIBERAL        PTCLDY    84  57  39 S10       29.84S
$$

KSZ066>073-081>083-090>101-200300-
SOUTHEAST KANSAS

CITY           SKY/WX    TMP DP  RH WIND       PRES   REMARKS
CHANUTE        CLEAR     81  69  67 S7        29.81R
COFFEYVILLE    CLEAR     85  72  65 S10       29.80R
HUTCHINSON     CLEAR     83  66  56 S7        29.79R
MEDICINE LODGE   N/A     87  62  43 S9        29.79R
NEWTON         CLEAR     82  64  54 S10       29.84S
PARSONS        CLEAR     84  70  62 S5        29.82R
WICHITA INTL   PTCLDY    84  66  54 SE10      29.79R
WICHITA JABRA  CLEAR     83  67  58 S7        29.80R
WINFIELD       PTCLDY    82  70  66 SE7       29.81R
$$

KSZ007>012-019>026-033>040-048>060-102>105-200300-
NORTHEAST KANSAS

CITY           SKY/WX    TMP DP  RH WIND       PRES   REMARKS
CONCORDIA      CLEAR     77  71  82 SE6       29.76S
EMPORIA        PTCLDY    79  67  66 S9        29.80R
LAWRENCE       CLEAR     80  72  76 SE3       29.77S
MANHATTAN      CLEAR     81  68  64 CALM      29.76R
OLATHE IND     CLEAR     83  69  62 SE7       29.80R
OLATHE EXE     CLEAR     82  71  69 SE3       29.79S
SALINA         CLEAR     83  68  60 SE7       29.77R
TOPEKA BILLARD CLEAR     82  73  74 CALM      29.77R
TOPEKA FORBES  CLEAR     82  71  69 E3        29.78R
$$


USA.gov is the U.S. government's official web portal to all federal, state and local government web resources and services.